| time (UTC) | temp C | wind direction | speed KPH | gust KPH | rain 1hr cm | rain 24hr cm | rain mn cm | humidity % | barometer mb |
| 20260906075719 | 25 | 0 | 0.0 | 0.0 | 0.00 | 0.00 | 0.00 | 80 | 1076.2 |
| 20260906075219 | 25 | 345 | 1.6 | 1.6 | 0.00 | 0.00 | 0.00 | 80 | 1076.2 |
| 20260906074718 | 25 | 279 | 0.0 | 0.0 | 0.00 | 0.00 | 0.00 | 79 | 1076.3 |
| 20260906074218 | 25 | 323 | 1.6 | 1.6 | 0.00 | 0.00 | 0.00 | 78 | 1076.3 |
| 20260906073717 | 25 | 295 | 1.6 | 1.6 | 0.00 | 0.00 | 0.00 | 81 | 1076.4 |
| 20260906073217 | 25 | 113 | 1.6 | 3.2 | 0.00 | 0.00 | 0.00 | 82 | 1076.4 |
| 20260906072716 | 25 | 104 | 1.6 | 3.2 | 0.00 | 0.00 | 0.00 | 83 | 1076.5 |
| 20260906072216 | 25 | 314 | 0.0 | 1.6 | 0.00 | 0.00 | 0.00 | 83 | 1076.4 |
| 20260906071716 | 25 | 321 | 0.0 | 1.6 | 0.00 | 0.00 | 0.00 | 84 | 1076.5 |
| 20260906071215 | 25 | 301 | 0.0 | 1.6 | 0.00 | 0.00 | 0.00 | 84 | 1076.6 |
| 20260906070714 | 25 | 8 | 0.0 | 1.6 | 0.00 | 0.00 | 0.00 | 84 | 1076.5 |
| 20260906070214 | 25 | 334 | 1.6 | 3.2 | 0.00 | 0.00 | 0.00 | 84 | 1076.5 |
| 20260906065713 | 25 | 10 | 1.6 | 4.8 | 0.00 | 0.00 | 0.00 | 84 | 1076.5 |
| 20260906065213 | 25 | 309 | 0.0 | 1.6 | 0.00 | 0.00 | 0.00 | 84 | 1076.2 |
| 20260906064713 | 25 | 0 | 0.0 | 0.0 | 0.00 | 0.00 | 0.00 | 83 | 1076.0 |
| 20260906064212 | 26 | 326 | 0.0 | 0.0 | 0.00 | 0.00 | 0.00 | 84 | 1075.9 |
| 20260906063711 | 26 | 0 | 0.0 | 0.0 | 0.00 | 0.00 | 0.00 | 85 | 1075.8 |
| 20260906063211 | 26 | 297 | 0.0 | 1.6 | 0.00 | 0.00 | 0.00 | 85 | 1075.7 |
| 20260906062711 | 26 | 277 | 0.0 | 0.0 | 0.00 | 0.00 | 0.00 | 85 | 1075.7 |
| 20260906062211 | 26 | 288 | 0.0 | 0.0 | 0.00 | 0.00 | 0.00 | 85 | 1075.6 |
| 20260906061711 | 26 | 14 | 1.6 | 1.6 | 0.00 | 0.00 | 0.00 | 87 | 1075.7 |
| 20260906061210 | 26 | 0 | 0.0 | 0.0 | 0.00 | 0.00 | 0.00 | 85 | 1075.4 |
| 20260906060710 | 26 | 0 | 0.0 | 0.0 | 0.00 | 0.00 | 0.00 | 86 | 1075.4 |
| 20260906060209 | 26 | 0 | 0.0 | 0.0 | 0.00 | 0.00 | 0.00 | 86 | 1075.4 |
| 20260906055708 | 26 | 0 | 0.0 | 0.0 | 0.00 | 0.00 | 0.00 | 87 | 1075.4 |
| 20260906055208 | 25 | 228 | 0.0 | 1.6 | 0.00 | 0.00 | 0.00 | 86 | 1075.4 |
| 20260906054708 | 25 | 217 | 1.6 | 1.6 | 0.00 | 0.00 | 0.00 | 87 | 1075.5 |
| 20260906054207 | 25 | 205 | 1.6 | 3.2 | 0.00 | 0.00 | 0.00 | 87 | 1075.6 |
| 20260906053706 | 25 | 280 | 0.0 | 1.6 | 0.00 | 0.00 | 0.00 | 87 | 1075.6 |
| 20260906053205 | 25 | 198 | 0.0 | 0.0 | 0.00 | 0.00 | 0.00 | 88 | 1075.6 |
| 20260906052705 | 25 | 0 | 0.0 | 0.0 | 0.00 | 0.00 | 0.00 | 90 | 1075.7 |
| 20260906052204 | 25 | 82 | 0.0 | 1.6 | 0.00 | 0.00 | 0.00 | 90 | 1075.6 |
| 20260906051704 | 25 | 0 | 0.0 | 0.0 | 0.00 | 0.00 | 0.00 | 90 | 1075.4 |
| 20260906051203 | 25 | 273 | 0.0 | 0.0 | 0.00 | 0.00 | 0.00 | 89 | 1075.2 |
| 20260906050703 | 25 | 325 | 0.0 | 1.6 | 0.00 | 0.00 | 0.00 | 89 | 1075.2 |
| 20260906050202 | 25 | 18 | 0.0 | 0.0 | 0.00 | 0.00 | 0.00 | 89 | 1075.2 |
| 20260906045702 | 25 | 0 | 0.0 | 0.0 | 0.00 | 0.00 | 0.00 | 89 | 1075.2 |
| 20260906045201 | 25 | 0 | 0.0 | 0.0 | 0.00 | 0.00 | 0.00 | 88 | 1075.3 |
| 20260906044700 | 25 | 0 | 0.0 | 0.0 | 0.00 | 0.00 | 0.00 | 88 | 1075.5 |
| 20260906044200 | 25 | 0 | 0.0 | 0.0 | 0.00 | 0.00 | 0.00 | 88 | 1075.6 |
| 20260906043659 | 25 | 0 | 0.0 | 0.0 | 0.00 | 0.00 | 0.00 | 88 | 1075.6 |
| 20260906043159 | 25 | 0 | 0.0 | 0.0 | 0.00 | 0.00 | 0.00 | 88 | 1075.7 |
| 20260906042658 | 25 | 0 | 0.0 | 0.0 | 0.00 | 0.00 | 0.00 | 88 | 1075.7 |
| 20260906042158 | 25 | 0 | 0.0 | 0.0 | 0.00 | 0.00 | 0.00 | 87 | 1075.7 |
| 20260906041658 | 25 | 0 | 0.0 | 0.0 | 0.00 | 0.00 | 0.00 | 87 | 1075.7 |
| 20260906041157 | 25 | 0 | 0.0 | 0.0 | 0.00 | 0.00 | 0.00 | 86 | 1075.7 |
| 20260906040656 | 25 | 197 | 0.0 | 0.0 | 0.00 | 0.00 | 0.00 | 86 | 1075.6 |
| 20260906040155 | 25 | 122 | 0.0 | 0.0 | 0.00 | 0.00 | 0.00 | 87 | 1075.6 |
| 20260906035655 | 25 | 21 | 0.0 | 0.0 | 0.00 | 0.00 | 0.00 | 86 | 1075.6 |
| 20260906035154 | 26 | 0 | 0.0 | 0.0 | 0.00 | 0.00 | 0.00 | 86 | 1075.6 |
| 20260906034654 | 26 | 0 | 0.0 | 0.0 | 0.00 | 0.00 | 0.00 | 86 | 1075.6 |
| 20260906034154 | 26 | 254 | 0.0 | 0.0 | 0.00 | 0.00 | 0.00 | 85 | 1075.7 |
| 20260906033653 | 26 | 0 | 0.0 | 0.0 | 0.00 | 0.00 | 0.00 | 85 | 1075.7 |
| 20260906033156 | 26 | 0 | 0.0 | 0.0 | 0.00 | 0.00 | 0.00 | 84 | 1075.6 |
| 20260906032652 | 26 | 164 | 0.0 | 0.0 | 0.00 | 0.00 | 0.00 | 84 | 1075.6 |
| 20260906032152 | 26 | 0 | 0.0 | 0.0 | 0.00 | 0.00 | 0.00 | 83 | 1075.6 |
| 20260906031651 | 26 | 144 | 0.0 | 1.6 | 0.00 | 0.00 | 0.00 | 83 | 1075.5 |
| 20260906031151 | 26 | 302 | 0.0 | 0.0 | 0.00 | 0.00 | 0.00 | 83 | 1075.5 |
| 20260906030651 | 26 | 0 | 0.0 | 0.0 | 0.00 | 0.00 | 0.00 | 83 | 1075.6 |
| 20260906030150 | 26 | 0 | 0.0 | 0.0 | 0.00 | 0.00 | 0.00 | 84 | 1075.6 |
| 20260906025650 | 26 | 0 | 0.0 | 0.0 | 0.00 | 0.00 | 0.00 | 82 | 1075.6 |
| 20260906025149 | 26 | 57 | 0.0 | 0.0 | 0.00 | 0.00 | 0.00 | 82 | 1075.5 |
| 20260906024648 | 26 | 326 | 0.0 | 1.6 | 0.00 | 0.00 | 0.00 | 82 | 1075.5 |
| 20260906024147 | 26 | 0 | 0.0 | 0.0 | 0.00 | 0.00 | 0.00 | 81 | 1075.5 |
| 20260906023647 | 26 | 0 | 0.0 | 0.0 | 0.00 | 0.00 | 0.00 | 82 | 1075.3 |
| 20260906023146 | 26 | 0 | 0.0 | 0.0 | 0.00 | 0.00 | 0.00 | 81 | 1075.3 |
| 20260906022646 | 26 | 0 | 0.0 | 0.0 | 0.00 | 0.00 | 0.00 | 81 | 1075.2 |
| 20260906022145 | 26 | 0 | 0.0 | 0.0 | 0.00 | 0.00 | 0.00 | 81 | 1075.2 |
| 20260906021645 | 26 | 0 | 0.0 | 0.0 | 0.00 | 0.00 | 0.00 | 80 | 1075.1 |
| 20260906021144 | 26 | 319 | 0.0 | 0.0 | 0.00 | 0.00 | 0.00 | 81 | 1075.0 |
| 20260906020643 | 26 | 0 | 0.0 | 0.0 | 0.00 | 0.00 | 0.00 | 79 | 1075.0 |
| 20260906020142 | 26 | 1 | 0.0 | 1.6 | 0.00 | 0.00 | 0.00 | 80 | 1074.9 |
| 20260906015641 | 27 | 57 | 0.0 | 0.0 | 0.00 | 0.00 | 0.00 | 78 | 1074.9 |
| 20260906015141 | 27 | 0 | 0.0 | 0.0 | 0.00 | 0.00 | 0.00 | 78 | 1074.8 |
| 20260906014640 | 27 | 0 | 0.0 | 0.0 | 0.00 | 0.00 | 0.00 | 77 | 1074.8 |
| 20260906014139 | 27 | 0 | 0.0 | 0.0 | 0.00 | 0.00 | 0.00 | 77 | 1074.7 |
| 20260906013638 | 27 | 70 | 0.0 | 0.0 | 0.00 | 0.00 | 0.00 | 77 | 1074.6 |
| 20260906013137 | 27 | 0 | 0.0 | 0.0 | 0.00 | 0.00 | 0.00 | 76 | 1074.5 |
| 20260906012637 | 27 | 10 | 0.0 | 0.0 | 0.00 | 0.00 | 0.00 | 76 | 1074.5 |
| 20260906012136 | 27 | 0 | 0.0 | 0.0 | 0.00 | 0.00 | 0.00 | 76 | 1074.5 |
| 20260906011635 | 27 | 344 | 0.0 | 1.6 | 0.00 | 0.00 | 0.00 | 76 | 1074.5 |
| 20260906011135 | 27 | 0 | 0.0 | 0.0 | 0.00 | 0.00 | 0.00 | 74 | 1074.4 |
| 20260906010634 | 28 | 0 | 0.0 | 0.0 | 0.00 | 0.00 | 0.00 | 73 | 1074.2 |
| 20260906010134 | 28 | 0 | 0.0 | 0.0 | 0.00 | 0.00 | 0.00 | 73 | 1074.1 |
| 20260906005634 | 28 | 0 | 0.0 | 0.0 | 0.00 | 0.00 | 0.00 | 73 | 1074.1 |
| 20260906005133 | 28 | 0 | 0.0 | 0.0 | 0.00 | 0.00 | 0.00 | 71 | 1074.0 |
| 20260906004632 | 28 | 0 | 0.0 | 0.0 | 0.00 | 0.00 | 0.00 | 71 | 1073.9 |
| 20260906004132 | 28 | 24 | 0.0 | 0.0 | 0.00 | 0.00 | 0.00 | 69 | 1073.9 |
| 20260906003632 | 28 | 0 | 0.0 | 0.0 | 0.00 | 0.00 | 0.00 | 69 | 1073.9 |
| 20260906003131 | 28 | 25 | 0.0 | 0.0 | 0.00 | 0.00 | 0.00 | 68 | 1073.9 |
| 20260906002631 | 29 | 0 | 0.0 | 0.0 | 0.00 | 0.00 | 0.00 | 66 | 1073.9 |
| 20260906002130 | 29 | 0 | 0.0 | 0.0 | 0.00 | 0.00 | 0.00 | 67 | 1074.0 |
| 20260906001630 | 29 | 255 | 0.0 | 3.2 | 0.00 | 0.00 | 0.00 | 66 | 1074.0 |
| 20260906001129 | 29 | 147 | 1.6 | 3.2 | 0.00 | 0.00 | 0.00 | 67 | 1074.1 |
| 20260906000629 | 30 | 134 | 1.6 | 3.2 | 0.00 | 0.00 | 0.00 | 68 | 1074.2 |
| 20260906000121 | 30 | 128 | 0.0 | 1.6 | 0.00 | 0.00 | 0.00 | 69 | 1074.2 |
| 20260905235620 | 30 | 322 | 0.0 | 1.6 | 0.00 | 0.00 | 0.00 | 68 | 1074.1 |
| 20260905235119 | 31 | 17 | 0.0 | 1.6 | 0.00 | 0.00 | 0.00 | 67 | 1074.1 |
| 20260905234619 | 31 | 157 | 1.6 | 3.2 | 0.00 | 0.00 | 0.00 | 66 | 1073.7 |
| 20260905234119 | 32 | 44 | 1.6 | 3.2 | 0.00 | 0.00 | 0.00 | 62 | 1073.4 |
| 20260905233619 | 33 | 109 | 1.6 | 3.2 | 0.00 | 0.00 | 0.00 | 60 | 1072.9 |
| 20260905233118 | 34 | 95 | 0.0 | 1.6 | 0.00 | 0.00 | 0.00 | 60 | 1072.6 |
| 20260905232618 | 34 | 345 | 0.0 | 1.6 | 0.00 | 0.00 | 0.00 | 58 | 1072.3 |
| 20260905232118 | 35 | 67 | 0.0 | 3.2 | 0.00 | 0.00 | 0.00 | 59 | 1072.1 |
| 20260905231618 | 35 | 325 | 0.0 | 1.6 | 0.00 | 0.00 | 0.00 | 58 | 1072.0 |
| 20260905231118 | 35 | 13 | 0.0 | 0.0 | 0.00 | 0.00 | 0.00 | 60 | 1013.5 |
| 20260905230617 | 35 | 0 | 0.0 | 0.0 | 0.00 | 0.00 | 0.00 | 59 | 1013.5 |
| 20260905230116 | 35 | 0 | 0.0 | 0.0 | 0.00 | 0.00 | 0.00 | 58 | 1013.4 |
| 20260905225616 | 36 | 0 | 0.0 | 0.0 | 0.00 | 0.00 | 0.00 | 58 | 1013.4 |
| 20260905225114 | 36 | 0 | 0.0 | 0.0 | 0.00 | 0.00 | 0.00 | 58 | 1013.5 |
| 20260905224614 | 36 | 8 | 0.0 | 0.0 | 0.00 | 0.00 | 0.00 | 56 | 1013.4 |
| 20260905224113 | 37 | 207 | 0.0 | 0.0 | 0.00 | 0.00 | 0.00 | 54 | 1013.4 |
| 20260905223612 | 37 | 0 | 0.0 | 0.0 | 0.00 | 0.00 | 0.00 | 53 | 1013.5 |
| 20260905223111 | 37 | 0 | 0.0 | 0.0 | 0.00 | 0.00 | 0.00 | 52 | 1071.4 |
| 20260905222609 | 38 | 0 | 0.0 | 0.0 | 0.00 | 0.00 | 0.00 | 50 | 1013.6 |
| 20260905222109 | 38 | 339 | 0.0 | 0.0 | 0.00 | 0.00 | 0.00 | 48 | 1013.6 |
| 20260905221608 | 38 | 213 | 0.0 | 0.0 | 0.00 | 0.00 | 0.00 | 47 | 1013.6 |
| 20260905221107 | 39 | 0 | 0.0 | 0.0 | 0.00 | 0.00 | 0.00 | 47 | 1013.7 |
| 20260905220606 | 39 | 8 | 0.0 | 1.6 | 0.00 | 0.00 | 0.00 | 48 | 1013.7 |
| 20260905220105 | 39 | 327 | 0.0 | 0.0 | 0.00 | 0.00 | 0.00 | 45 | 1013.7 |
| 20260905215605 | 39 | 93 | 0.0 | 0.0 | 0.00 | 0.00 | 0.00 | 44 | 1013.8 |
| 20260905215104 | 38 | 24 | 0.0 | 0.0 | 0.00 | 0.00 | 0.00 | 47 | 1013.7 |
| 20260905214603 | 38 | 0 | 0.0 | 0.0 | 0.00 | 0.00 | 0.00 | 47 | 1013.7 |
| 20260905214101 | 38 | 17 | 0.0 | 1.6 | 0.00 | 0.00 | 0.00 | 47 | 1013.7 |
| 20260905213601 | 38 | 352 | 0.0 | 0.0 | 0.00 | 0.00 | 0.00 | 48 | 1013.8 |
| 20260905213100 | 38 | 358 | 0.0 | 1.6 | 0.00 | 0.00 | 0.00 | 47 | 1013.8 |
| 20260905212559 | 38 | 31 | 0.0 | 0.0 | 0.00 | 0.00 | 0.00 | 50 | 1013.7 |
| 20260905212058 | 38 | 25 | 0.0 | 0.0 | 0.00 | 0.00 | 0.00 | 50 | 1013.7 |
| 20260905211557 | 37 | 0 | 0.0 | 1.6 | 0.00 | 0.00 | 0.00 | 47 | 1013.8 |
| 20260905211057 | 37 | 10 | 0.0 | 0.0 | 0.00 | 0.00 | 0.00 | 47 | 1013.8 |
| 20260905210555 | 37 | 350 | 0.0 | 0.0 | 0.00 | 0.00 | 0.00 | 47 | 1013.8 |
| 20260905210054 | 38 | 350 | 0.0 | 0.0 | 0.00 | 0.00 | 0.00 | 46 | 1013.7 |
| 20260905205552 | 37 | 9 | 0.0 | 0.0 | 0.00 | 0.00 | 0.00 | 48 | 1013.7 |
| 20260905205051 | 37 | 1 | 0.0 | 1.6 | 0.00 | 0.00 | 0.00 | 49 | 1013.8 |
| 20260905204551 | 37 | 233 | 0.0 | 0.0 | 0.00 | 0.00 | 0.00 | 47 | 1013.9 |
| 20260905204050 | 37 | 3 | 0.0 | 0.0 | 0.00 | 0.00 | 0.00 | 49 | 1013.9 |
| 20260905203549 | 37 | 312 | 0.0 | 0.0 | 0.00 | 0.00 | 0.00 | 49 | 1014.0 |
| 20260905203048 | 38 | 4 | 0.0 | 1.6 | 0.00 | 0.00 | 0.00 | 48 | 1014.2 |
| 20260905202547 | 38 | 1 | 0.0 | 0.0 | 0.00 | 0.00 | 0.00 | 47 | 1014.2 |
| 20260905202046 | 38 | 359 | 0.0 | 1.6 | 0.00 | 0.00 | 0.00 | 47 | 1014.2 |
| 20260905201546 | 38 | 349 | 0.0 | 1.6 | 0.00 | 0.00 | 0.00 | 46 | 1014.3 |
| 20260905201045 | 39 | 1 | 0.0 | 1.6 | 0.00 | 0.00 | 0.00 | 45 | 1014.4 |
| 20260905200544 | 39 | 262 | 0.0 | 1.6 | 0.00 | 0.00 | 0.00 | 45 | 1014.4 |
| 20260905200043 | 40 | 310 | 0.0 | 0.0 | 0.00 | 0.00 | 0.00 | 44 | 1014.6 |
| 20260905195543 | 40 | 8 | 0.0 | 1.6 | 0.00 | 0.00 | 0.00 | 45 | 1014.7 |
| 20260905195042 | 39 | 154 | 0.0 | 0.0 | 0.00 | 0.00 | 0.00 | 47 | 1014.8 |
| 20260905194541 | 38 | 346 | 0.0 | 0.0 | 0.00 | 0.00 | 0.00 | 45 | 1014.7 |
| 20260905194041 | 38 | 283 | 0.0 | 1.6 | 0.00 | 0.00 | 0.00 | 45 | 1014.8 |
| 20260905193540 | 38 | 348 | 0.0 | 1.6 | 0.00 | 0.00 | 0.00 | 47 | 1014.8 |
| 20260905193039 | 38 | 340 | 0.0 | 0.0 | 0.00 | 0.00 | 0.00 | 47 | 1014.8 |
| 20260905192538 | 38 | 12 | 1.6 | 1.6 | 0.00 | 0.00 | 0.00 | 49 | 1014.8 |
| 20260905192036 | 38 | 55 | 0.0 | 0.0 | 0.00 | 0.00 | 0.00 | 48 | 1014.9 |
| 20260905191536 | 38 | 225 | 0.0 | 1.6 | 0.00 | 0.00 | 0.00 | 47 | 1014.9 |
| 20260905191035 | 37 | 99 | 0.0 | 1.6 | 0.00 | 0.00 | 0.00 | 49 | 1015.0 |
| 20260905190533 | 37 | 72 | 0.0 | 1.6 | 0.00 | 0.00 | 0.00 | 50 | 1015.0 |
| 20260905190033 | 37 | 0 | 0.0 | 0.0 | 0.00 | 0.00 | 0.00 | 51 | 1015.1 |
| 20260905185532 | 37 | 348 | 0.0 | 0.0 | 0.00 | 0.00 | 0.00 | 51 | 1015.1 |
| 20260905185031 | 36 | 118 | 0.0 | 0.0 | 0.00 | 0.00 | 0.00 | 54 | 1015.1 |
| 20260905184530 | 36 | 86 | 0.0 | 0.0 | 0.00 | 0.00 | 0.00 | 55 | 1015.2 |
| 20260905184029 | 36 | 26 | 0.0 | 0.0 | 0.00 | 0.00 | 0.00 | 55 | 1015.2 |
| 20260905183528 | 36 | 352 | 0.0 | 1.6 | 0.00 | 0.00 | 0.00 | 53 | 1015.2 |
| 20260905183027 | 36 | 0 | 0.0 | 1.6 | 0.00 | 0.00 | 0.00 | 54 | 1015.3 |
| 20260905182526 | 36 | 5 | 0.0 | 1.6 | 0.00 | 0.00 | 0.00 | 53 | 1015.3 |
| 20260905182025 | 36 | 4 | 0.0 | 1.6 | 0.00 | 0.00 | 0.00 | 56 | 1015.3 |
| 20260905181523 | 35 | 25 | 0.0 | 0.0 | 0.00 | 0.00 | 0.00 | 56 | 1015.3 |
| 20260905181022 | 35 | 136 | 0.0 | 1.6 | 0.00 | 0.00 | 0.00 | 56 | 1015.4 |
| 20260905180522 | 35 | 0 | 0.0 | 0.0 | 0.00 | 0.00 | 0.00 | 55 | 1015.4 |
| 20260905180020 | 35 | 0 | 0.0 | 0.0 | 0.00 | 0.00 | 0.00 | 59 | 1015.5 |
| 20260905175519 | 35 | 6 | 0.0 | 1.6 | 0.00 | 0.00 | 0.00 | 57 | 1015.4 |
| 20260905175018 | 35 | 342 | 0.0 | 1.6 | 0.00 | 0.00 | 0.00 | 58 | 1015.4 |
| 20260905174517 | 35 | 173 | 0.0 | 1.6 | 0.00 | 0.00 | 0.00 | 58 | 1015.5 |
| 20260905174015 | 34 | 323 | 0.0 | 1.6 | 0.00 | 0.00 | 0.00 | 58 | 1074.4 |
| 20260905173515 | 34 | 262 | 0.0 | 1.6 | 0.00 | 0.00 | 0.00 | 57 | 1074.5 |
| 20260905173014 | 34 | 49 | 0.0 | 0.0 | 0.00 | 0.00 | 0.00 | 59 | 1015.6 |
| 20260905172513 | 34 | 132 | 0.0 | 1.6 | 0.00 | 0.00 | 0.00 | 59 | 1015.6 |
| 20260905172012 | 34 | 3 | 0.0 | 1.6 | 0.00 | 0.00 | 0.00 | 59 | 1015.7 |
| 20260905171511 | 34 | 14 | 1.6 | 1.6 | 0.00 | 0.00 | 0.00 | 60 | 1015.7 |
| 20260905171011 | 34 | 2 | 0.0 | 1.6 | 0.00 | 0.00 | 0.00 | 61 | 1015.8 |
| 20260905170509 | 33 | 346 | 0.0 | 1.6 | 0.00 | 0.00 | 0.00 | 61 | 1015.8 |
| 20260905170008 | 33 | 1 | 0.0 | 1.6 | 0.00 | 0.00 | 0.00 | 61 | 1015.8 |
| 20260905165507 | 33 | 28 | 0.0 | 1.6 | 0.00 | 0.00 | 0.00 | 61 | 1015.8 |
| 20260905165006 | 33 | 357 | 0.0 | 1.6 | 0.00 | 0.00 | 0.00 | 62 | 1015.8 |
| 20260905164505 | 33 | 0 | 0.0 | 0.0 | 0.00 | 0.00 | 0.00 | 63 | 1015.9 |
| 20260905164004 | 33 | 354 | 0.0 | 0.0 | 0.00 | 0.00 | 0.00 | 63 | 1016.0 |
| 20260905163504 | 33 | 0 | 0.0 | 0.0 | 0.00 | 0.00 | 0.00 | 63 | 1016.1 |
| 20260905163002 | 33 | 0 | 0.0 | 0.0 | 0.00 | 0.00 | 0.00 | 64 | 1016.2 |
| 20260905162501 | 33 | 35 | 0.0 | 0.0 | 0.00 | 0.00 | 0.00 | 63 | 1016.2 |
| 20260905162000 | 33 | 357 | 0.0 | 1.6 | 0.00 | 0.00 | 0.00 | 62 | 1016.3 |
| 20260905161459 | 33 | 39 | 0.0 | 0.0 | 0.00 | 0.00 | 0.00 | 64 | 1016.3 |
| 20260905160958 | 33 | 255 | 0.0 | 0.0 | 0.00 | 0.00 | 0.00 | 63 | 1016.3 |
| 20260905160454 | 33 | 346 | 0.0 | 1.6 | 0.00 | 0.00 | 0.00 | 62 | 1016.3 |
| 20260905155954 | 34 | 355 | 0.0 | 1.6 | 0.00 | 0.00 | 0.00 | 62 | 1016.4 |
| 20260905155452 | 34 | 348 | 0.0 | 1.6 | 0.00 | 0.00 | 0.00 | 62 | 1016.3 |
| 20260905154951 | 33 | 0 | 0.0 | 0.0 | 0.00 | 0.00 | 0.00 | 64 | 1016.4 |
| 20260905154451 | 33 | 348 | 0.0 | 1.6 | 0.00 | 0.00 | 0.00 | 65 | 1016.4 |
| 20260905153950 | 33 | 329 | 0.0 | 0.0 | 0.00 | 0.00 | 0.00 | 65 | 1016.3 |
| 20260905153450 | 33 | 0 | 0.0 | 1.6 | 0.00 | 0.00 | 0.00 | 66 | 1016.3 |
| 20260905152948 | 33 | 7 | 0.0 | 0.0 | 0.00 | 0.00 | 0.00 | 66 | 1016.3 |
| 20260905152448 | 32 | 0 | 0.0 | 0.0 | 0.00 | 0.00 | 0.00 | 67 | 1016.2 |
| 20260905151947 | 32 | 5 | 0.0 | 0.0 | 0.00 | 0.00 | 0.00 | 68 | 1016.2 |
| 20260905151447 | 31 | 0 | 0.0 | 0.0 | 0.00 | 0.00 | 0.00 | 70 | 1016.2 |
| 20260905150946 | 31 | 0 | 0.0 | 0.0 | 0.00 | 0.00 | 0.00 | 72 | 1016.1 |
| 20260905150445 | 30 | 0 | 0.0 | 0.0 | 0.00 | 0.00 | 0.00 | 74 | 1016.0 |
| 20260905145945 | 29 | 0 | 0.0 | 0.0 | 0.00 | 0.00 | 0.00 | 77 | 1015.9 |
| 20260905145444 | 28 | 1 | 0.0 | 0.0 | 0.00 | 0.00 | 0.00 | 78 | 1015.9 |
| 20260905144943 | 28 | 0 | 0.0 | 0.0 | 0.00 | 0.00 | 0.00 | 80 | 1015.8 |
| 20260905144442 | 28 | 247 | 0.0 | 0.0 | 0.00 | 0.00 | 0.00 | 80 | 1015.8 |
| 20260905143941 | 28 | 0 | 0.0 | 0.0 | 0.00 | 0.00 | 0.00 | 83 | 1015.8 |
| 20260905143441 | 27 | 0 | 0.0 | 0.0 | 0.00 | 0.00 | 0.00 | 83 | 1015.8 |
| 20260905142940 | 27 | 0 | 0.0 | 0.0 | 0.00 | 0.00 | 0.00 | 84 | 1015.8 |
| 20260905142439 | 27 | 0 | 0.0 | 0.0 | 0.00 | 0.00 | 0.00 | 86 | 1015.8 |
| 20260905141938 | 27 | 71 | 0.0 | 0.0 | 0.00 | 0.00 | 0.00 | 87 | 1015.8 |
| 20260905141437 | 27 | 0 | 0.0 | 0.0 | 0.00 | 0.00 | 0.00 | 87 | 1015.8 |
| 20260905140935 | 27 | 298 | 0.0 | 0.0 | 0.00 | 0.00 | 0.00 | 88 | 1015.8 |
| 20260905140433 | 27 | 0 | 0.0 | 0.0 | 0.00 | 0.00 | 0.00 | 88 | 1015.8 |
| 20260905135932 | 26 | 209 | 0.0 | 0.0 | 0.00 | 0.00 | 0.00 | 88 | 1015.8 |
| 20260905135431 | 26 | 89 | 0.0 | 0.0 | 0.00 | 0.00 | 0.00 | 90 | 1015.7 |
| 20260905134930 | 26 | 147 | 0.0 | 0.0 | 0.00 | 0.00 | 0.00 | 91 | 1015.6 |
| 20260905134429 | 26 | 0 | 0.0 | 0.0 | 0.00 | 0.00 | 0.00 | 92 | 1015.6 |
| 20260905133928 | 25 | 177 | 0.0 | 0.0 | 0.00 | 0.00 | 0.00 | 92 | 1015.5 |
| 20260905133427 | 25 | 0 | 0.0 | 0.0 | 0.00 | 0.00 | 0.00 | 93 | 1015.5 |
| 20260905132926 | 25 | 0 | 0.0 | 0.0 | 0.00 | 0.00 | 0.00 | 94 | 1015.3 |
| 20260905132423 | 25 | 0 | 0.0 | 0.0 | 0.00 | 0.00 | 0.00 | 96 | 1015.0 |
| 20260905131923 | 24 | 0 | 0.0 | 0.0 | 0.00 | 0.00 | 0.00 | 97 | 1014.8 |
| 20260905131422 | 24 | 0 | 0.0 | 0.0 | 0.00 | 0.00 | 0.00 | 98 | 1076.4 |
| 20260905130921 | 24 | 0 | 0.0 | 0.0 | 0.00 | 0.00 | 0.00 | 99 | 1076.3 |
| 20260905130420 | 23 | 0 | 0.0 | 0.0 | 0.00 | 0.00 | 0.00 | 99 | 1076.3 |
| 20260905125919 | 23 | 0 | 0.0 | 0.0 | 0.00 | 0.00 | 0.00 | 99 | 1014.3 |
| 20260905125419 | 23 | 0 | 0.0 | 0.0 | 0.00 | 0.00 | 0.00 | 99 | 1014.3 |
| 20260905124918 | 23 | 0 | 0.0 | 0.0 | 0.00 | 0.00 | 0.00 | 99 | 1014.3 |
| 20260905124417 | 23 | 337 | 0.0 | 0.0 | 0.00 | 0.00 | 0.00 | 99 | 1014.3 |
| 20260905123916 | 23 | 0 | 0.0 | 0.0 | 0.00 | 0.00 | 0.00 | 99 | 1014.3 |
| 20260905123415 | 23 | 0 | 0.0 | 0.0 | 0.00 | 0.00 | 0.00 | 99 | 1014.4 |
| 20260905122914 | 23 | 0 | 0.0 | 0.0 | 0.00 | 0.00 | 0.00 | 99 | 1014.4 |
| 20260905122413 | 23 | 0 | 0.0 | 0.0 | 0.00 | 0.00 | 0.00 | 99 | 1014.4 |
| 20260905121912 | 23 | 0 | 0.0 | 0.0 | 0.00 | 0.00 | 0.00 | 99 | 1014.4 |
| 20260905121411 | 22 | 0 | 0.0 | 0.0 | 0.00 | 0.00 | 0.00 | 99 | 1014.3 |
| 20260905120910 | 22 | 0 | 0.0 | 0.0 | 0.00 | 0.00 | 0.00 | 99 | 1014.2 |
| 20260905120409 | 22 | 0 | 0.0 | 0.0 | 0.00 | 0.00 | 0.00 | 99 | 1014.2 |
| 20260905115908 | 22 | 312 | 0.0 | 0.0 | 0.00 | 0.00 | 0.00 | 99 | 1014.2 |
| 20260905115407 | 22 | 0 | 0.0 | 0.0 | 0.00 | 0.00 | 0.00 | 99 | 1014.1 |
| 20260905114903 | 22 | 0 | 0.0 | 0.0 | 0.00 | 0.00 | 0.00 | 99 | 1014.0 |
| 20260905114401 | 22 | 0 | 0.0 | 0.0 | 0.00 | 0.00 | 0.00 | 99 | 1014.0 |
| 20260905113900 | 22 | 0 | 0.0 | 0.0 | 0.00 | 0.00 | 0.00 | 99 | 1014.0 |
| 20260905113359 | 22 | 287 | 0.0 | 0.0 | 0.00 | 0.00 | 0.00 | 99 | 1014.1 |
| 20260905112858 | 22 | 305 | 0.0 | 0.0 | 0.00 | 0.00 | 0.00 | 98 | 1014.0 |
| 20260905112356 | 22 | 0 | 0.0 | 0.0 | 0.00 | 0.00 | 0.00 | 98 | 1014.0 |
| 20260905111855 | 22 | 55 | 0.0 | 0.0 | 0.00 | 0.00 | 0.00 | 98 | 1013.9 |
| 20260905111355 | 22 | 0 | 0.0 | 0.0 | 0.00 | 0.00 | 0.00 | 98 | 1013.9 |
| 20260905110854 | 22 | 0 | 0.0 | 0.0 | 0.00 | 0.00 | 0.00 | 98 | 1013.9 |
| 20260905110353 | 22 | 0 | 0.0 | 0.0 | 0.00 | 0.00 | 0.00 | 98 | 1013.8 |
| 20260905105852 | 22 | 0 | 0.0 | 0.0 | 0.00 | 0.00 | 0.00 | 98 | 1013.8 |
| 20260905105351 | 22 | 0 | 0.0 | 0.0 | 0.00 | 0.00 | 0.00 | 98 | 1013.8 |
| 20260905104851 | 22 | 0 | 0.0 | 0.0 | 0.00 | 0.00 | 0.00 | 98 | 1013.8 |
| 20260905104350 | 22 | 0 | 0.0 | 0.0 | 0.00 | 0.00 | 0.00 | 98 | 1013.8 |
| 20260905103850 | 22 | 0 | 0.0 | 0.0 | 0.00 | 0.00 | 0.00 | 98 | 1013.7 |
| 20260905103349 | 23 | 0 | 0.0 | 0.0 | 0.00 | 0.00 | 0.00 | 98 | 1013.7 |
| 20260905102848 | 23 | 0 | 0.0 | 0.0 | 0.00 | 0.00 | 0.00 | 98 | 1013.7 |
| 20260905102347 | 23 | 299 | 0.0 | 0.0 | 0.00 | 0.00 | 0.00 | 98 | 1013.6 |
| 20260905101846 | 23 | 0 | 0.0 | 0.0 | 0.00 | 0.00 | 0.00 | 98 | 1013.6 |
| 20260905101345 | 23 | 0 | 0.0 | 0.0 | 0.00 | 0.00 | 0.00 | 98 | 1013.6 |
| 20260905100844 | 23 | 0 | 0.0 | 0.0 | 0.00 | 0.00 | 0.00 | 98 | 1013.6 |
| 20260905100343 | 23 | 0 | 0.0 | 0.0 | 0.00 | 0.00 | 0.00 | 98 | 1013.6 |
| 20260905095842 | 23 | 0 | 0.0 | 0.0 | 0.00 | 0.00 | 0.00 | 98 | 1013.6 |
| 20260905095341 | 23 | 332 | 0.0 | 0.0 | 0.00 | 0.00 | 0.00 | 98 | 1013.6 |
| 20260905094840 | 23 | 0 | 0.0 | 0.0 | 0.00 | 0.00 | 0.00 | 98 | 1013.6 |
| 20260905094340 | 23 | 0 | 0.0 | 0.0 | 0.00 | 0.00 | 0.00 | 97 | 1013.6 |
| 20260905093839 | 23 | 319 | 0.0 | 0.0 | 0.00 | 0.00 | 0.00 | 97 | 1013.7 |
| 20260905093338 | 23 | 0 | 0.0 | 0.0 | 0.00 | 0.00 | 0.00 | 97 | 1013.7 |
| 20260905092838 | 23 | 0 | 0.0 | 0.0 | 0.00 | 0.00 | 0.00 | 97 | 1013.6 |
| 20260905092338 | 23 | 0 | 0.0 | 0.0 | 0.00 | 0.00 | 0.00 | 97 | 1013.6 |
| 20260905091836 | 23 | 0 | 0.0 | 0.0 | 0.00 | 0.00 | 0.00 | 97 | 1013.6 |
| 20260905091336 | 23 | 0 | 0.0 | 0.0 | 0.00 | 0.00 | 0.00 | 97 | 1013.6 |
| 20260905090835 | 23 | 0 | 0.0 | 0.0 | 0.00 | 0.00 | 0.00 | 97 | 1013.6 |
| 20260905090334 | 23 | 0 | 0.0 | 0.0 | 0.00 | 0.00 | 0.00 | 97 | 1013.7 |
| 20260905085833 | 23 | 0 | 0.0 | 0.0 | 0.00 | 0.00 | 0.00 | 97 | 1013.7 |
| 20260905085332 | 23 | 0 | 0.0 | 0.0 | 0.00 | 0.00 | 0.00 | 97 | 1013.7 |
| 20260905084831 | 23 | 0 | 0.0 | 0.0 | 0.00 | 0.00 | 0.00 | 97 | 1013.7 |
| 20260905084330 | 23 | 0 | 0.0 | 0.0 | 0.00 | 0.00 | 0.00 | 97 | 1075.8 |
| 20260905083829 | 23 | 0 | 0.0 | 0.0 | 0.00 | 0.00 | 0.00 | 97 | 1013.7 |
| 20260905083328 | 23 | 295 | 0.0 | 0.0 | 0.00 | 0.00 | 0.00 | 96 | 1013.7 |
| 20260905082827 | 23 | 0 | 0.0 | 0.0 | 0.00 | 0.00 | 0.00 | 96 | 1013.7 |
| 20260905082326 | 23 | 0 | 0.0 | 0.0 | 0.00 | 0.00 | 0.00 | 96 | 1013.8 |
| 20260905081825 | 23 | 0 | 0.0 | 0.0 | 0.00 | 0.00 | 0.00 | 96 | 1013.7 |
| 20260905081324 | 23 | 0 | 0.0 | 0.0 | 0.00 | 0.00 | 0.00 | 96 | 1013.7 |
| 20260905080824 | 23 | 0 | 0.0 | 0.0 | 0.00 | 0.00 | 0.00 | 96 | 1013.6 |
| 20260905080323 | 23 | 0 | 0.0 | 0.0 | 0.00 | 0.00 | 0.00 | 96 | 1013.7 |